Weather History for Kansas City, MO

Change the Weather History Date:

Friday, July 4, 2014

  Actual Average Record
Temperature  
Mean Temperature 73 °F -  
Max Temperature 82 °F 86 °F 102 °F (2012)
Min Temperature 64 °F 68 °F 59 °F (1997)
Cooling Degree Days 8    
Growing Degree Days 23 (Base 50)    
Moisture  
Dew Point 58 °F    
Average Humidity 57    
Maximum Humidity 81    
Minimum Humidity 42    
Precipitation  
Precipitation 0.00 in - - ()
Sea Level Pressure  
Sea Level Pressure 30.21 in    
Wind  
Wind Speed 5 mph (SE)    
Max Wind Speed 14 mph    
Max Gust Speed 21 mph    
Visibility 10 miles    
Events      
Averages and records for this station are not official NWS values.
T = Trace of Precipitation, MM = Missing Value Source: NWS Daily Summary

Daily Weather History Graph

Daily Weather History Graph

Search for Another Location

Airport:

Trip Planner

Search our weather history database for the weather conditions in past years. The results will help you decide how hot, cold, wet, or windy it might be!

Date:

Astronomy

Jul. 04, 2014 Rise Set
Actual Time 5:57 AM CDT 8:47 PM CDT
Civil Twilight 5:25 AM CDT 9:19 PM CDT
Nautical Twilight 4:45 AM CDT 9:59 PM CDT
Astronomical Twilight 3:59 AM CDT 10:45 PM CDT
Moon 12:51 PM CDT (7/4) 12:13 AM CDT (7/4)
Length of Visible Light 15h 54m
Length of Day
14h 50m
Waxing Crescent, 42% of the Moon is Illuminated
Jul 4
Waxing Crescent
Jul 5
First Quarter
Jul 12
Full
Jul 18
Last Quarter
Jul 26
New

Hourly Weather History & Observations

Time (CDT) Temp. Heat Index Dew Point Humidity Pressure Visibility Wind Dir Wind Speed Gust Speed Precip Events Conditions
12:54 AM 69.1 °F - 59.0 °F 70% 30.22 in 10.0 mi WNW 3.5 mph - N/A   Clear
1:54 AM 66.9 °F - 59.0 °F 76% 30.23 in 10.0 mi Calm Calm - N/A   Clear
2:54 AM 66.0 °F - 55.0 °F 68% 30.23 in 10.0 mi Calm Calm - N/A   Clear
3:54 AM 66.0 °F - 59.0 °F 78% 30.24 in 10.0 mi North 3.5 mph - N/A   Clear
4:54 AM 66.0 °F - 57.9 °F 75% 30.24 in 10.0 mi Calm Calm - N/A   Clear
5:54 AM 64.9 °F - 57.9 °F 78% 30.24 in 10.0 mi Calm Calm - N/A   Clear
6:54 AM 64.9 °F - 59.0 °F 81% 30.25 in 9.0 mi Calm Calm - N/A   Clear
7:54 AM 70.0 °F - 60.1 °F 71% 30.25 in 10.0 mi Calm Calm - N/A   Clear
8:54 AM 75.0 °F - 55.9 °F 51% 30.26 in 10.0 mi SE 5.8 mph - N/A   Clear
9:54 AM 77.0 °F - 55.9 °F 48% 30.26 in 10.0 mi ESE 9.2 mph - N/A   Clear
10:54 AM 79.0 °F - 55.9 °F 45% 30.26 in 10.0 mi SE 9.2 mph - N/A   Clear
11:54 AM 80.1 °F 80.4 °F 57.0 °F 45% 30.25 in 10.0 mi ESE 13.8 mph - N/A   Clear
12:54 PM 81.0 °F 81.0 °F 57.0 °F 44% 30.24 in 10.0 mi ESE 11.5 mph - N/A   Clear
1:54 PM 82.0 °F 82.1 °F 59.0 °F 45% 30.23 in 10.0 mi Variable 3.5 mph - N/A   Clear
2:54 PM 82.9 °F 82.8 °F 59.0 °F 44% 30.21 in 10.0 mi SSE 6.9 mph - N/A   Clear
3:54 PM 82.9 °F 82.8 °F 59.0 °F 44% 30.20 in 10.0 mi SE 10.4 mph 20.7 mph N/A   Clear
4:54 PM 82.9 °F 82.6 °F 57.9 °F 42% 30.18 in 10.0 mi SE 10.4 mph - N/A   Clear
5:54 PM 82.0 °F 82.0 °F 57.9 °F 44% 30.17 in 10.0 mi South 9.2 mph - N/A   Clear
6:54 PM 81.0 °F 81.1 °F 57.9 °F 45% 30.17 in 10.0 mi South 6.9 mph - N/A   Clear
7:54 PM 80.1 °F 80.6 °F 57.9 °F 47% 30.14 in 10.0 mi ESE 10.4 mph - N/A   Clear
8:54 PM 78.1 °F - 59.0 °F 52% 30.13 in 10.0 mi SE 9.2 mph - N/A   Clear
9:54 PM 77.0 °F - 60.1 °F 56% 30.15 in 10.0 mi Variable 5.8 mph - N/A   Clear
10:54 PM 75.9 °F - 60.1 °F 58% 30.15 in 10.0 mi SE 10.4 mph - N/A   Clear
11:54 PM 73.9 °F - 60.1 °F 62% 30.14 in 9.0 mi ESE 6.9 mph - N/A   Clear